Location: Newark
(25.4800°N, 85.7200°E)
Time: 09:21:43
(UTC+00:00)

Explorer 11/Cluster Stage 4 - Pass Details

Date: 24 August 2019
Orbit: 467 x 1260 km, 28.8° (Epoch: 19 September)

Event Time Altitude Azimuth Distance (km) Brightness Sun altitude
Rises 02:26:32 0° 228° (SW) 3,752 9.7 33.3°
Reaches altitude 10° 02:29:13 10° 221° (SW) 2,907 9.3 33.9°
Maximum altitude 02:36:07 43° 152° (SSE) 1,603 9.0 35.5°
Drops below altitude 10° 02:43:46 10° 84° (E) 3,226 11.0 37.2°
Sets 02:46:54 0° 78° (ENE) 4,201 11.2 37.9°
